| time (UTC) | temp F | wind direction | speed MPH | gust MPH | rain 1hr in | rain 24hr in | rain mn in | humidity % | barometer mb |
| 20260506195004 | 69 | 89 | 1.0 | 5.0 | 0.00 | 0.05 | 0.05 | 79 | 1012.7 |
| 20260506194004 | 69 | 65 | 1.0 | 6.0 | 0.00 | 0.05 | 0.05 | 79 | 1012.5 |
| 20260506193504 | 70 | 27 | 1.0 | 5.0 | 0.00 | 0.05 | 0.05 | 80 | 1012.5 |
| 20260506193004 | 70 | 12 | 1.0 | 5.0 | 0.00 | 0.05 | 0.05 | 80 | 1012.6 |
| 20260506192504 | 70 | 50 | 1.0 | 5.0 | 0.00 | 0.05 | 0.05 | 80 | 1012.5 |
| 20260506192004 | 70 | 86 | 1.0 | 4.0 | 0.00 | 0.05 | 0.05 | 80 | 1012.6 |
| 20260506191005 | 72 | 0 | 0.0 | 3.0 | 0.00 | 0.05 | 0.05 | 78 | 1012.6 |
| 20260506190504 | 73 | 0 | 0.0 | 3.0 | 0.00 | 0.05 | 0.05 | 79 | 1012.8 |
| 20260506185504 | 74 | 58 | 1.0 | 6.0 | 0.00 | 0.05 | 0.05 | 78 | 1012.6 |
| 20260506185005 | 74 | 0 | 0.0 | 4.0 | 0.00 | 0.05 | 0.05 | 80 | 1012.5 |
| 20260506184504 | 74 | 65 | 1.0 | 4.0 | 0.00 | 0.05 | 0.05 | 78 | 1012.4 |
| 20260506184004 | 74 | 64 | 1.0 | 4.0 | 0.00 | 0.05 | 0.05 | 80 | 1012.4 |
| 20260506183504 | 74 | 63 | 1.0 | 4.0 | 0.01 | 0.05 | 0.05 | 79 | 1012.5 |
| 20260506183005 | 74 | 0 | 0.0 | 6.0 | 0.01 | 0.05 | 0.05 | 80 | 1012.4 |
| 20260506182504 | 73 | 57 | 1.0 | 6.0 | 0.01 | 0.05 | 0.05 | 81 | 1012.4 |
| 20260506182004 | 73 | 55 | 1.0 | 5.0 | 0.01 | 0.05 | 0.05 | 81 | 1012.4 |
| 20260506181004 | 72 | 52 | 1.0 | 4.0 | 0.01 | 0.05 | 0.05 | 83 | 1012.6 |
| 20260506180504 | 72 | 0 | 0.0 | 3.0 | 0.01 | 0.05 | 0.05 | 83 | 1012.4 |
| 20260506175505 | 71 | 95 | 1.0 | 5.0 | 0.01 | 0.05 | 0.05 | 84 | 1012.3 |
| 20260506174504 | 70 | 104 | 1.0 | 8.0 | 0.01 | 0.05 | 0.05 | 83 | 1012.2 |
| 20260506174004 | 69 | 110 | 1.0 | 8.0 | 0.01 | 0.05 | 0.05 | 85 | 1012.1 |
| 20260506173504 | 69 | 111 | 2.0 | 6.0 | 0.00 | 0.04 | 0.04 | 86 | 1012.2 |
| 20260506173004 | 68 | 103 | 2.0 | 7.0 | 0.00 | 0.04 | 0.04 | 85 | 1012.1 |
| 20260506172004 | 67 | 67 | 1.0 | 5.0 | 0.00 | 0.04 | 0.04 | 88 | 1012.3 |
| 20260506171504 | 67 | 65 | 1.0 | 5.0 | 0.00 | 0.04 | 0.04 | 89 | 1012.3 |
| 20260506171004 | 66 | 94 | 1.0 | 5.0 | 0.00 | 0.04 | 0.04 | 89 | 1012.2 |
| 20260506170504 | 65 | 95 | 1.0 | 5.0 | 0.00 | 0.04 | 0.04 | 89 | 1012.3 |
| 20260506170004 | 64 | 90 | 1.0 | 5.0 | 0.00 | 0.04 | 0.04 | 89 | 1012.4 |
| 20260506165504 | 64 | 87 | 1.0 | 6.0 | 0.00 | 0.04 | 0.04 | 89 | 1012.4 |
| 20260506164505 | 64 | 0 | 0.0 | 4.0 | 0.00 | 0.04 | 0.04 | 89 | 1012.7 |
| 20260506164004 | 64 | 0 | 0.0 | 4.0 | 0.02 | 0.04 | 0.04 | 88 | 1012.8 |
| 20260506163004 | 63 | 72 | 1.0 | 7.0 | 0.03 | 0.04 | 0.04 | 88 | 1013.4 |
| 20260506162004 | 62 | 45 | 1.0 | 6.0 | 0.03 | 0.04 | 0.04 | 89 | 1013.1 |
| 20260506161504 | 62 | 49 | 1.0 | 5.0 | 0.03 | 0.04 | 0.04 | 89 | 1013.4 |
| 20260506161004 | 62 | 0 | 0.0 | 5.0 | 0.03 | 0.04 | 0.04 | 89 | 1013.7 |
| 20260506160504 | 62 | 0 | 0.0 | 1.0 | 0.03 | 0.04 | 0.04 | 89 | 1014.0 |
| 20260506155504 | 63 | 0 | 0.0 | 0.0 | 0.03 | 0.04 | 0.04 | 89 | 1013.8 |
| 20260506155004 | 63 | 0 | 0.0 | 0.0 | 0.03 | 0.04 | 0.04 | 89 | 1013.9 |
| 20260506154504 | 64 | 0 | 0.0 | 0.0 | 0.03 | 0.04 | 0.04 | 89 | 1013.5 |
| 20260506154004 | 65 | 0 | 0.0 | 0.0 | 0.01 | 0.02 | 0.02 | 89 | 1013.6 |
| 20260506153504 | 66 | 0 | 0.0 | 0.0 | 0.01 | 0.02 | 0.02 | 89 | 1013.8 |
| 20260506153005 | 66 | 0 | 0.0 | 0.0 | 0.00 | 0.01 | 0.01 | 89 | 1013.4 |
| 20260506152504 | 67 | 0 | 0.0 | 0.0 | 0.00 | 0.01 | 0.01 | 89 | 1013.1 |
| 20260506152004 | 67 | 0 | 0.0 | 0.0 | 0.00 | 0.01 | 0.01 | 88 | 1012.9 |
| 20260506151504 | 68 | 0 | 0.0 | 0.0 | 0.00 | 0.01 | 0.01 | 87 | 1012.5 |
| 20260506151004 | 69 | 0 | 0.0 | 0.0 | 0.00 | 0.01 | 0.01 | 87 | 1012.5 |
| 20260506150505 | 70 | 0 | 0.0 | 0.0 | 0.00 | 0.01 | 0.01 | 85 | 1012.4 |
| 20260506150004 | 73 | 0 | 0.0 | 0.0 | 0.00 | 0.01 | 0.01 | 83 | 1012.3 |
| 20260506145504 | 76 | 0 | 0.0 | 0.0 | 0.00 | 0.01 | 0.01 | 85 | 1012.0 |
| 20260506145004 | 77 | 0 | 0.0 | 0.0 | 0.00 | 0.01 | 0.01 | 88 | 1011.5 |
| 20260506144505 | 77 | 0 | 0.0 | 0.0 | 0.00 | 0.01 | 0.01 | 88 | 1011.2 |
| 20260506144028 | 77 | 0 | 0.0 | 0.0 | 0.00 | 0.01 | 0.01 | 88 | 1011.1 |
| 20260506142504 | 77 | 0 | 0.0 | 0.0 | 0.00 | 0.01 | 0.01 | 88 | 1010.7 |
| 20260506142004 | 77 | 0 | 0.0 | 0.0 | 0.00 | 0.01 | 0.01 | 88 | 1010.6 |
| 20260506140504 | 76 | 0 | 0.0 | 0.0 | 0.00 | 0.01 | 0.01 | 88 | 1010.6 |
| 20260506140006 | 76 | 0 | 0.0 | 0.0 | 0.00 | 0.01 | 0.01 | 89 | 1010.7 |
| 20260506135504 | 75 | 0 | 0.0 | 0.0 | 0.00 | 0.01 | 0.01 | 88 | 1010.9 |
| 20260506134505 | 75 | 0 | 0.0 | 0.0 | 0.00 | 0.01 | 0.01 | 88 | 1010.3 |
| 20260506134004 | 75 | 0 | 0.0 | 0.0 | 0.00 | 0.01 | 0.01 | 88 | 1010.4 |
| 20260506133504 | 75 | 0 | 0.0 | 0.0 | 0.00 | 0.01 | 0.01 | 88 | 1010.4 |
| 20260506133005 | 75 | 0 | 0.0 | 0.0 | 0.00 | 0.01 | 0.01 | 88 | 1010.3 |
| 20260506132504 | 74 | 0 | 0.0 | 0.0 | 0.00 | 0.01 | 0.01 | 88 | 1010.3 |
| 20260506132004 | 74 | 0 | 0.0 | 0.0 | 0.00 | 0.01 | 0.01 | 88 | 1010.3 |
| 20260506131505 | 74 | 0 | 0.0 | 0.0 | 0.00 | 0.01 | 0.01 | 88 | 1010.2 |
| 20260506131004 | 74 | 0 | 0.0 | 0.0 | 0.00 | 0.01 | 0.01 | 88 | 1010.1 |
| 20260506130505 | 74 | 0 | 0.0 | 0.0 | 0.00 | 0.01 | 0.01 | 88 | 1010.1 |
| 20260506130005 | 74 | 0 | 0.0 | 0.0 | 0.00 | 0.01 | 0.01 | 88 | 1010.1 |
| 20260506125504 | 74 | 0 | 0.0 | 0.0 | 0.00 | 0.01 | 0.01 | 88 | 1010.1 |
| 20260506124504 | 74 | 0 | 0.0 | 0.0 | 0.00 | 0.01 | 0.01 | 88 | 1009.9 |
| 20260506124004 | 74 | 0 | 0.0 | 0.0 | 0.00 | 0.01 | 0.01 | 88 | 1009.9 |
| 20260506123004 | 73 | 0 | 0.0 | 0.0 | 0.00 | 0.01 | 0.01 | 88 | 1009.7 |
| 20260506122505 | 73 | 0 | 0.0 | 0.0 | 0.00 | 0.01 | 0.01 | 88 | 1009.7 |
| 20260506122004 | 73 | 0 | 0.0 | 0.0 | 0.00 | 0.01 | 0.01 | 88 | 1009.7 |
| 20260506121504 | 73 | 0 | 0.0 | 0.0 | 0.00 | 0.01 | 0.01 | 88 | 1009.8 |
| 20260506121004 | 74 | 0 | 0.0 | 0.0 | 0.00 | 0.01 | 0.01 | 88 | 1009.8 |
| 20260506120504 | 74 | 0 | 0.0 | 0.0 | 0.00 | 0.01 | 0.01 | 88 | 1009.8 |
| 20260506120005 | 74 | 0 | 0.0 | 0.0 | 0.00 | 0.01 | 0.01 | 88 | 1009.8 |
| 20260506114005 | 74 | 0 | 0.0 | 0.0 | 0.00 | 0.01 | 0.01 | 88 | 1009.6 |
| 20260506113504 | 74 | 0 | 0.0 | 0.0 | 0.00 | 0.01 | 0.01 | 88 | 1009.7 |
| 20260506113004 | 74 | 0 | 0.0 | 0.0 | 0.00 | 0.01 | 0.01 | 88 | 1009.8 |
| 20260506112504 | 74 | 0 | 0.0 | 0.0 | 0.01 | 0.01 | 0.01 | 88 | 1009.8 |
| 20260506112004 | 74 | 0 | 0.0 | 0.0 | 0.01 | 0.01 | 0.01 | 88 | 1009.8 |
| 20260506111504 | 74 | 0 | 0.0 | 0.0 | 0.01 | 0.01 | 0.01 | 88 | 1009.8 |
| 20260506111004 | 74 | 0 | 0.0 | 0.0 | 0.01 | 0.01 | 0.01 | 88 | 1009.8 |
| 20260506110504 | 74 | 0 | 0.0 | 0.0 | 0.01 | 0.01 | 0.01 | 88 | 1009.7 |
| 20260506110005 | 74 | 0 | 0.0 | 0.0 | 0.01 | 0.01 | 0.01 | 88 | 1009.7 |
| 20260506105504 | 74 | 0 | 0.0 | 0.0 | 0.01 | 0.01 | 0.01 | 88 | 1009.7 |
| 20260506105004 | 74 | 0 | 0.0 | 0.0 | 0.01 | 0.01 | 0.01 | 88 | 1009.7 |
| 20260506104504 | 74 | 0 | 0.0 | 0.0 | 0.01 | 0.01 | 0.01 | 88 | 1009.7 |
| 20260506104004 | 74 | 0 | 0.0 | 0.0 | 0.01 | 0.01 | 0.01 | 88 | 1009.7 |
| 20260506103504 | 74 | 0 | 0.0 | 0.0 | 0.01 | 0.01 | 0.01 | 88 | 1009.5 |
| 20260506103004 | 74 | 0 | 0.0 | 0.0 | 0.01 | 0.01 | 0.01 | 88 | 1009.5 |
| 20260506102504 | 74 | 0 | 0.0 | 0.0 | 0.00 | 0.00 | 0.00 | 88 | 1009.5 |
| 20260506101004 | 75 | 0 | 0.0 | 0.0 | 0.00 | 0.00 | 0.00 | 88 | 1009.4 |
| 20260506100504 | 75 | 0 | 0.0 | 0.0 | 0.00 | 0.00 | 0.00 | 88 | 1009.3 |
| 20260506100005 | 75 | 0 | 0.0 | 0.0 | 0.00 | 0.00 | 0.00 | 89 | 1009.3 |
| 20260506095505 | 75 | 0 | 0.0 | 0.0 | 0.00 | 0.00 | 0.00 | 89 | 1009.3 |
| 20260506095004 | 75 | 0 | 0.0 | 0.0 | 0.00 | 0.00 | 0.00 | 89 | 1009.0 |
| 20260506094503 | 75 | 0 | 0.0 | 0.0 | 0.00 | 0.00 | 0.00 | 89 | 1009.1 |
| 20260506094004 | 75 | 0 | 0.0 | 0.0 | 0.00 | 0.00 | 0.00 | 89 | 1008.9 |
| 20260506093504 | 75 | 0 | 0.0 | 0.0 | 0.00 | 0.00 | 0.00 | 89 | 1008.8 |
| 20260506093004 | 75 | 0 | 0.0 | 0.0 | 0.00 | 0.00 | 0.00 | 89 | 1008.7 |
| 20260506092004 | 75 | 0 | 0.0 | 0.0 | 0.00 | 0.00 | 0.00 | 89 | 1008.8 |
| 20260506091504 | 75 | 0 | 0.0 | 0.0 | 0.00 | 0.00 | 0.00 | 89 | 1008.7 |
| 20260506090504 | 75 | 0 | 0.0 | 1.0 | 0.00 | 0.00 | 0.00 | 89 | 1008.5 |
| 20260506085504 | 75 | 0 | 0.0 | 3.0 | 0.00 | 0.00 | 0.00 | 89 | 1008.3 |
| 20260506085004 | 75 | 0 | 0.0 | 3.0 | 0.00 | 0.00 | 0.00 | 89 | 1008.5 |
| 20260506084504 | 75 | 0 | 0.0 | 5.0 | 0.00 | 0.00 | 0.00 | 89 | 1008.4 |
| 20260506083504 | 75 | 137 | 1.0 | 4.0 | 0.00 | 0.00 | 0.00 | 89 | 1008.5 |
| 20260506083004 | 75 | 132 | 1.0 | 4.0 | 0.00 | 0.00 | 0.00 | 89 | 1008.5 |
| 20260506082004 | 75 | 217 | 1.0 | 3.0 | 0.00 | 0.00 | 0.00 | 89 | 1008.4 |
| 20260506081504 | 75 | 224 | 1.0 | 5.0 | 0.00 | 0.00 | 0.00 | 89 | 1008.3 |
| 20260506080504 | 75 | 164 | 1.0 | 5.0 | 0.00 | 0.00 | 0.00 | 89 | 1008.5 |
| 20260506073504 | 75 | 201 | 1.0 | 4.0 | 0.00 | 0.00 | 0.00 | 89 | 1008.8 |
| 20260506073004 | 75 | 198 | 1.0 | 7.0 | 0.00 | 0.00 | 0.00 | 89 | 1008.7 |
| 20260506072504 | 75 | 223 | 1.0 | 7.0 | 0.00 | 0.00 | 0.00 | 89 | 1008.8 |
| 20260506072004 | 75 | 226 | 1.0 | 6.0 | 0.00 | 0.00 | 0.00 | 89 | 1008.9 |
| 20260506071503 | 75 | 208 | 1.0 | 6.0 | 0.00 | 0.00 | 0.00 | 89 | 1008.9 |
| 20260506071004 | 75 | 199 | 1.0 | 6.0 | 0.00 | 0.00 | 0.00 | 89 | 1008.8 |
| 20260506070504 | 75 | 206 | 2.0 | 7.0 | 0.00 | 0.00 | 0.00 | 89 | 1008.8 |
| 20260506062504 | 75 | 209 | 2.0 | 6.0 | 0.00 | 0.00 | 0.00 | 88 | 1008.8 |
| 20260506062003 | 75 | 204 | 1.0 | 7.0 | 0.00 | 0.00 | 0.00 | 88 | 1008.8 |
| 20260506061504 | 75 | 205 | 1.0 | 7.0 | 0.00 | 0.00 | 0.00 | 88 | 1008.8 |
| 20260506061004 | 75 | 241 | 1.0 | 9.0 | 0.00 | 0.00 | 0.00 | 88 | 1008.7 |
| 20260506060504 | 75 | 250 | 1.0 | 9.0 | 0.00 | 0.00 | 0.00 | 88 | 1008.7 |
| 20260506051004 | 76 | 213 | 1.0 | 6.0 | 0.00 | 0.00 | 0.00 | 88 | 1008.9 |
| 20260506050504 | 76 | 225 | 1.0 | 7.0 | 0.00 | 0.00 | 0.00 | 88 | 1009.0 |
| 20260506045004 | 76 | 200 | 1.0 | 4.0 | 0.00 | 0.00 | 0.00 | 88 | 1008.8 |
| 20260506044504 | 76 | 190 | 1.0 | 4.0 | 0.00 | 0.00 | 0.00 | 88 | 1008.9 |
| 20260506044004 | 76 | 190 | 1.0 | 5.0 | 0.00 | 0.00 | 0.00 | 88 | 1008.8 |
| 20260506043505 | 76 | 192 | 1.0 | 5.0 | 0.00 | 0.00 | 0.00 | 88 | 1008.8 |
| 20260506043004 | 76 | 193 | 1.0 | 5.0 | 0.00 | 0.00 | 0.00 | 88 | 1008.7 |
| 20260506042504 | 76 | 186 | 1.0 | 5.0 | 0.00 | 0.00 | 0.00 | 88 | 1008.6 |
| 20260506042004 | 76 | 174 | 1.0 | 5.0 | 0.00 | 0.00 | 0.00 | 88 | 1008.7 |
| 20260506041504 | 76 | 175 | 1.0 | 5.0 | 0.00 | 0.00 | 0.00 | 88 | 1008.7 |
| 20260506041004 | 76 | 176 | 1.0 | 7.0 | 0.00 | 0.00 | 0.00 | 88 | 1008.7 |
| 20260506040504 | 76 | 175 | 1.0 | 7.0 | 0.00 | 0.00 | 0.00 | 88 | 1008.5 |
| 20260506040004 | 76 | 0 | 0.0 | 3.0 | 0.00 | 0.00 | 0.00 | 88 | 1008.4 |
| 20260506035004 | 76 | 177 | 1.0 | 6.0 | 0.00 | 0.00 | 0.00 | 88 | 1008.4 |
| 20260506034504 | 76 | 0 | 0.0 | 6.0 | 0.00 | 0.00 | 0.00 | 88 | 1008.2 |
| 20260506034004 | 77 | 0 | 0.0 | 5.0 | 0.00 | 0.00 | 0.00 | 88 | 1008.2 |
| 20260506033504 | 77 | 175 | 1.0 | 4.0 | 0.00 | 0.00 | 0.00 | 87 | 1008.2 |
| 20260506033004 | 77 | 173 | 1.0 | 4.0 | 0.00 | 0.00 | 0.00 | 87 | 1008.3 |
| 20260506032504 | 77 | 171 | 1.0 | 4.0 | 0.00 | 0.00 | 0.00 | 87 | 1008.2 |
| 20260506032004 | 77 | 0 | 0.0 | 4.0 | 0.00 | 0.00 | 0.00 | 87 | 1008.2 |
| 20260506031504 | 77 | 159 | 1.0 | 5.0 | 0.00 | 0.00 | 0.00 | 87 | 1008.1 |
| 20260506031004 | 77 | 131 | 1.0 | 5.0 | 0.00 | 0.00 | 0.00 | 87 | 1008.0 |
| 20260506030504 | 77 | 87 | 1.0 | 3.0 | 0.00 | 0.00 | 0.00 | 87 | 1008.0 |
| 20260506030004 | 77 | 86 | 1.0 | 7.0 | 0.00 | 0.00 | 0.00 | 86 | 1008.0 |
| 20260506024504 | 77 | 0 | 0.0 | 2.0 | 0.00 | 0.00 | 0.00 | 85 | 1007.7 |
| 20260506024004 | 77 | 0 | 0.0 | 2.0 | 0.00 | 0.00 | 0.00 | 85 | 1007.6 |
| 20260506023504 | 78 | 0 | 0.0 | 1.0 | 0.00 | 0.00 | 0.00 | 85 | 1007.5 |
| 20260506023004 | 78 | 0 | 0.0 | 1.0 | 0.00 | 0.00 | 0.00 | 85 | 1007.4 |
| 20260506022504 | 78 | 0 | 0.0 | 1.0 | 0.00 | 0.00 | 0.00 | 85 | 1007.3 |
| 20260506022004 | 78 | 0 | 0.0 | 1.0 | 0.00 | 0.00 | 0.00 | 85 | 1007.2 |
| 20260506021504 | 78 | 0 | 0.0 | 2.0 | 0.00 | 0.00 | 0.00 | 84 | 1007.1 |
| 20260506021004 | 78 | 0 | 0.0 | 2.0 | 0.00 | 0.00 | 0.00 | 84 | 1007.1 |
| 20260506020504 | 78 | 0 | 0.0 | 2.0 | 0.00 | 0.00 | 0.00 | 84 | 1007.0 |
| 20260506020004 | 78 | 0 | 0.0 | 3.0 | 0.00 | 0.00 | 0.00 | 84 | 1006.8 |
| 20260506015504 | 78 | 0 | 0.0 | 3.0 | 0.00 | 0.00 | 0.00 | 83 | 1006.7 |
| 20260506015004 | 79 | 0 | 0.0 | 1.0 | 0.00 | 0.00 | 0.00 | 83 | 1006.8 |
| 20260506014504 | 79 | 0 | 0.0 | 1.0 | 0.00 | 0.00 | 0.00 | 83 | 1006.7 |
| 20260506014003 | 79 | 0 | 0.0 | 1.0 | 0.00 | 0.00 | 0.00 | 82 | 1006.7 |
| 20260506013504 | 79 | 0 | 0.0 | 1.0 | 0.00 | 0.00 | 0.00 | 82 | 1006.7 |
| 20260506013004 | 79 | 0 | 0.0 | 1.0 | 0.00 | 0.00 | 0.00 | 82 | 1006.8 |
| 20260506012504 | 80 | 0 | 0.0 | 1.0 | 0.00 | 0.00 | 0.00 | 81 | 1006.7 |
| 20260506012004 | 80 | 0 | 0.0 | 1.0 | 0.00 | 0.00 | 0.00 | 81 | 1006.6 |
| 20260506011004 | 80 | 0 | 0.0 | 3.0 | 0.00 | 0.00 | 0.00 | 80 | 1006.6 |
| 20260506010503 | 80 | 0 | 0.0 | 3.0 | 0.00 | 0.00 | 0.00 | 80 | 1006.6 |
| 20260506010004 | 81 | 0 | 0.0 | 3.0 | 0.00 | 0.00 | 0.00 | 79 | 1006.7 |
| 20260506005504 | 81 | 0 | 0.0 | 2.0 | 0.00 | 0.00 | 0.00 | 79 | 1006.7 |
| 20260506004505 | 81 | 0 | 0.0 | 2.0 | 0.00 | 0.00 | 0.00 | 78 | 1006.7 |
| 20260506004004 | 81 | 0 | 0.0 | 1.0 | 0.00 | 0.00 | 0.00 | 78 | 1006.7 |
| 20260506003504 | 81 | 0 | 0.0 | 3.0 | 0.00 | 0.00 | 0.00 | 77 | 1006.7 |
| 20260506003003 | 81 | 0 | 0.0 | 3.0 | 0.00 | 0.00 | 0.00 | 77 | 1006.7 |
| 20260506002504 | 82 | 0 | 0.0 | 2.0 | 0.00 | 0.00 | 0.00 | 77 | 1006.7 |
| 20260506002004 | 82 | 0 | 0.0 | 2.0 | 0.00 | 0.00 | 0.00 | 76 | 1006.7 |
| 20260506001504 | 82 | 0 | 0.0 | 2.0 | 0.00 | 0.00 | 0.00 | 76 | 1006.7 |
| 20260506001004 | 82 | 0 | 0.0 | 3.0 | 0.00 | 0.00 | 0.00 | 76 | 1006.6 |
| 20260506000504 | 82 | 0 | 0.0 | 4.0 | 0.00 | 0.00 | 0.00 | 76 | 1006.7 |
| 20260506000004 | 82 | 178 | 1.0 | 5.0 | 0.00 | 0.00 | 0.00 | 76 | 1006.7 |
| 20260505235504 | 82 | 0 | 0.0 | 5.0 | 0.00 | 0.00 | 0.00 | 75 | 1006.7 |
| 20260505235003 | 82 | 169 | 1.0 | 5.0 | 0.00 | 0.00 | 0.00 | 76 | 1006.4 |
| 20260505234504 | 82 | 177 | 1.0 | 5.0 | 0.00 | 0.00 | 0.00 | 75 | 1006.4 |
| 20260505233504 | 82 | 221 | 1.0 | 6.0 | 0.00 | 0.00 | 0.00 | 75 | 1006.3 |
| 20260505233003 | 82 | 196 | 1.0 | 6.0 | 0.00 | 0.00 | 0.00 | 75 | 1006.3 |
| 20260505232503 | 82 | 175 | 1.0 | 4.0 | 0.00 | 0.00 | 0.00 | 75 | 1006.2 |
| 20260505232004 | 83 | 156 | 1.0 | 4.0 | 0.00 | 0.00 | 0.00 | 75 | 1006.2 |
| 20260505231504 | 83 | 186 | 1.0 | 5.0 | 0.00 | 0.00 | 0.00 | 75 | 1006.2 |
| 20260505231004 | 83 | 206 | 1.0 | 7.0 | 0.00 | 0.00 | 0.00 | 74 | 1006.2 |
| 20260505230504 | 83 | 198 | 1.0 | 7.0 | 0.00 | 0.00 | 0.00 | 74 | 1006.2 |
| 20260505225504 | 83 | 209 | 1.0 | 7.0 | 0.00 | 0.00 | 0.00 | 73 | 1006.1 |
| 20260505225003 | 83 | 202 | 1.0 | 5.0 | 0.00 | 0.00 | 0.00 | 74 | 1006.1 |
| 20260505224004 | 84 | 335 | 1.0 | 5.0 | 0.00 | 0.00 | 0.00 | 73 | 1006.2 |
| 20260505223504 | 84 | 10 | 1.0 | 4.0 | 0.00 | 0.00 | 0.00 | 72 | 1006.1 |
| 20260505223004 | 84 | 176 | 1.0 | 6.0 | 0.00 | 0.00 | 0.00 | 71 | 1006.1 |
| 20260505222504 | 84 | 186 | 1.0 | 7.0 | 0.00 | 0.00 | 0.00 | 72 | 1006.0 |
| 20260505220504 | 84 | 212 | 2.0 | 7.0 | 0.00 | 0.00 | 0.00 | 71 | 1006.2 |
| 20260505220004 | 84 | 205 | 2.0 | 8.0 | 0.00 | 0.00 | 0.00 | 71 | 1006.3 |
| 20260505215504 | 84 | 186 | 1.0 | 8.0 | 0.00 | 0.00 | 0.00 | 71 | 1006.2 |
| 20260505214504 | 84 | 225 | 1.0 | 8.0 | 0.00 | 0.00 | 0.00 | 72 | 1006.6 |
| 20260505214004 | 84 | 198 | 2.0 | 7.0 | 0.00 | 0.00 | 0.00 | 71 | 1006.7 |
| 20260505213504 | 84 | 169 | 2.0 | 7.0 | 0.00 | 0.00 | 0.00 | 72 | 1006.7 |
| 20260505213004 | 84 | 163 | 2.0 | 6.0 | 0.00 | 0.00 | 0.00 | 72 | 1006.6 |
| 20260505212004 | 84 | 197 | 2.0 | 6.0 | 0.00 | 0.00 | 0.00 | 73 | 1006.8 |
| 20260505211003 | 83 | 189 | 2.0 | 6.0 | 0.00 | 0.00 | 0.00 | 75 | 1006.8 |
| 20260505210504 | 83 | 193 | 2.0 | 6.0 | 0.00 | 0.00 | 0.00 | 74 | 1006.8 |
| 20260505210004 | 83 | 187 | 2.0 | 6.0 | 0.00 | 0.00 | 0.00 | 74 | 1006.9 |
| 20260505205504 | 83 | 184 | 1.0 | 5.0 | 0.00 | 0.00 | 0.00 | 74 | 1007.0 |
| 20260505205004 | 83 | 172 | 1.0 | 5.0 | 0.00 | 0.00 | 0.00 | 73 | 1007.0 |
| 20260505204504 | 83 | 163 | 1.0 | 5.0 | 0.00 | 0.00 | 0.00 | 74 | 1007.0 |
| 20260505204004 | 83 | 204 | 1.0 | 6.0 | 0.00 | 0.00 | 0.00 | 73 | 1007.0 |
| 20260505203504 | 84 | 192 | 2.0 | 6.0 | 0.00 | 0.00 | 0.00 | 74 | 1007.1 |
| 20260505203004 | 83 | 191 | 2.0 | 6.0 | 0.00 | 0.00 | 0.00 | 76 | 1007.3 |
| 20260505202504 | 83 | 204 | 2.0 | 6.0 | 0.00 | 0.00 | 0.00 | 75 | 1007.4 |
| 20260505202004 | 83 | 201 | 2.0 | 5.0 | 0.00 | 0.00 | 0.00 | 75 | 1007.5 |
| 20260505201504 | 83 | 207 | 1.0 | 5.0 | 0.00 | 0.00 | 0.00 | 76 | 1007.6 |
| 20260505201004 | 83 | 191 | 1.0 | 7.0 | 0.00 | 0.00 | 0.00 | 76 | 1007.7 |
| 20260505200504 | 82 | 174 | 1.0 | 7.0 | 0.00 | 0.00 | 0.00 | 76 | 1007.7 |
| 20260505200004 | 83 | 216 | 1.0 | 7.0 | 0.00 | 0.00 | 0.00 | 75 | 1007.8 |
| 20260505195504 | 83 | 216 | 1.0 | 4.0 | 0.00 | 0.00 | 0.00 | 76 | 1007.9 |